TimeCDT,TemperatureF,Dew PointF,Humidity,Sea Level PressureIn,VisibilityMPH,Wind Direction,Wind SpeedMPH,Gust SpeedMPH,PrecipitationIn,Events,Conditions,WindDirDegrees,DateUTC
12:56 AM,65.8,63.0,90,29.95,10.0,West,24.2,32.2,N/A,,Clear,280,2013-05-22 05:56:00
1:56 AM,63.9,63.9,100,29.92,10.0,South,4.6,-,N/A,,Partly Cloudy,190,2013-05-22 06:56:00
2:56 AM,64.9,63.9,96,29.90,10.0,South,3.5,-,N/A,,Clear,180,2013-05-22 07:56:00
3:56 AM,63.0,63.0,100,29.90,9.0,Calm,Calm,-,N/A,,Clear,0,2013-05-22 08:56:00
4:56 AM,64.9,63.9,96,29.91,10.0,South,5.8,-,N/A,,Clear,170,2013-05-22 09:56:00
5:56 AM,65.8,65.8,100,29.92,10.0,SW,6.9,-,N/A,,Mostly Cloudy,230,2013-05-22 10:56:00
6:10 AM,66.2,66.2,100,29.93,7.0,WSW,6.9,-,0.00,Rain,Light Rain,240,2013-05-22 11:10:00
6:26 AM,66.2,66.2,100,29.92,10.0,SSW,4.6,-,0.00,,Mostly Cloudy,210,2013-05-22 11:26:00
6:56 AM,68.9,66.9,93,29.92,10.0,Variable,4.6,-,0.00,,Scattered Clouds,0,2013-05-22 11:56:00
7:56 AM,70.9,65.8,84,29.89,10.0,SE,10.4,-,N/A,,Partly Cloudy,140,2013-05-22 12:56:00
8:56 AM,73.9,68.0,82,29.91,10.0,South,6.9,-,N/A,,Clear,180,2013-05-22 13:56:00
9:56 AM,77.9,65.8,66,29.92,10.0,SSW,10.4,-,N/A,,Clear,200,2013-05-22 14:56:00
10:56 AM,77.0,63.9,64,29.93,10.0,WSW,10.4,-,N/A,,Partly Cloudy,240,2013-05-22 15:56:00
11:56 AM,75.9,64.9,69,29.94,10.0,SW,5.8,-,N/A,,Partly Cloudy,230,2013-05-22 16:56:00
12:56 PM,77.9,64.9,64,29.92,10.0,SSW,11.5,-,0.00,,Clear,200,2013-05-22 17:56:00
1:56 PM,75.9,63.9,66,29.91,10.0,SW,8.1,-,N/A,,Clear,220,2013-05-22 18:56:00
2:56 PM,75.9,64.9,69,29.89,10.0,SW,8.1,-,N/A,,Partly Cloudy,220,2013-05-22 19:56:00
3:56 PM,77.9,64.9,64,29.85,10.0,SSW,10.4,-,N/A,,Partly Cloudy,210,2013-05-22 20:56:00
4:56 PM,77.9,64.9,64,29.85,10.0,SW,10.4,-,N/A,,Partly Cloudy,220,2013-05-22 21:56:00
5:56 PM,77.0,63.9,64,29.85,10.0,SW,11.5,-,N/A,,Scattered Clouds,230,2013-05-22 22:56:00
6:56 PM,73.9,64.9,73,29.86,10.0,SSW,5.8,-,N/A,,Mostly Cloudy,200,2013-05-22 23:56:00
7:56 PM,70.9,65.8,84,29.88,10.0,Calm,Calm,-,0.00,Rain,Light Rain,0,2013-05-23 00:56:00
8:56 PM,66.9,66.9,100,29.88,10.0,SSW,4.6,-,0.00,,Partly Cloudy,210,2013-05-23 01:56:00
9:56 PM,64.9,64.9,100,29.90,3.0,Calm,Calm,-,N/A,,Clear,0,2013-05-23 02:56:00
10:05 PM,64.4,64.4,100,29.91,2.5,Calm,Calm,-,N/A,,Clear,0,2013-05-23 03:05:00
10:10 PM,64.4,64.4,100,29.91,1.2,Calm,Calm,-,N/A,,Clear,0,2013-05-23 03:10:00
10:12 PM,64.4,64.4,100,29.91,0.8,Calm,Calm,-,N/A,,Clear,0,2013-05-23 03:12:00
10:14 PM,64.4,64.4,100,29.91,0.2,Calm,Calm,-,N/A,Fog,Fog,0,2013-05-23 03:14:00
10:26 PM,64.4,64.4,100,29.91,0.8,WSW,4.6,-,N/A,,Clear,250,2013-05-23 03:26:00
10:28 PM,64.4,64.4,100,29.91,2.0,WSW,4.6,-,N/A,,Clear,250,2013-05-23 03:28:00
10:36 PM,64.4,64.4,100,29.91,8.0,SW,4.6,-,N/A,,Clear,230,2013-05-23 03:36:00
10:56 PM,63.9,63.9,100,29.91,9.0,SW,3.5,-,N/A,,Clear,220,2013-05-23 03:56:00
11:56 PM,63.9,63.9,100,29.91,7.0,SSW,3.5,-,N/A,,Partly Cloudy,200,2013-05-23 04:56:00